Regional Weather Roundup
Issued by NWS Sioux Falls, SD

Home | Current Version | Previous Version | Text Only | Print | Product List | Glossary Off
Versions: 1 2 3 4 5 6 7 8 9 10 11 12 13 14 15 16 17 18 19 20 21 22 23 24 25 26 27 28 29 30 31 32 33 34 35 36 37 38 39 40 41 42 43 44 45 46 47 48 49 50

000
ASUS43 KFSD 100610
RWRFSD

WEATHER ROUNDUP FOR SE SOUTH DAKOTA/SW MINNESOTA/NW IOWA
NATIONAL WEATHER SERVICE SIOUX FALLS SD
1200 AM CST SAT DEC 10 2016

NOTE: "FAIR" INDICATES FEW OR NO CLOUDS BELOW 12,000 FEET WITH NO
SIGNIFICANT WEATHER AND OR OBSTRUCTIONS TO VISIBILITY.


SDZ038>040-050-052>070-100700-
SOUTHEAST SOUTH DAKOTA

CITY           SKY/WX    TMP DP  RH WIND       PRES   REMARKS
BROOKINGS      CLOUDY     4  -1  80 N5        30.47S WCI  -5
CHAMBERLAIN    CLOUDY     6   2  86 N6        30.47F WCI  -5
HURON          CLOUDY     4   1  88 N8        30.52F WCI  -9
6HR MIN TEMP:   4; 6HR MAX TEMP:   6; 6HR PCP: TRACE;

MADISON        LGT RAIN   5   3  92 NE7       30.46S WCI  -7
MITCHELL       CLOUDY     7   2  80 N9        30.53S WCI  -7
6HR MIN TEMP:   6; 6HR MAX TEMP:   9; 6HR PCP: TRACE;

SIOUX FALLS    CLOUDY    11   7  84 N6        30.48S WCI   1
6HR MIN TEMP:  11; 6HR MAX TEMP:  14; 6HR PCP:  0.01;

WINNER         CLOUDY     6   2  83 NE5       30.43F WCI  -3
YANKTON        CLOUDY    12   9  85 NW8       30.48S WCI   1
$$

MNZ071-072-080-081-089-090-097-098-100700-
SOUTHWEST MINNESOTA

CITY           SKY/WX    TMP DP  RH WIND       PRES   REMARKS
FAIRMONT       FLURRIES   9   5  84 NW8       30.51S WCI  -3
JACKSON        FLURRIES   9   3  78 N6        30.48F WCI  -1
LUVERNE        FLURRIES  12   7  79 NE6       30.48F WCI   3
MARSHALL       CLOUDY     5   0  79 NW8       30.53S WCI  -8
6HR MIN TEMP:   5; 6HR MAX TEMP:   9; 6HR PCP: TRACE;

MONTEVIDEO     CLEAR      1  -4  78 CALM      30.55F
PIPESTONE      CLOUDY     9   3  78 NE5       30.45F WCI   0
REDWOOD FALLS  CLOUDY     7   0  73 NW5       30.53S WCI  -2
TRACY          CLOUDY     7   3  83 N6        30.50F WCI  -3
WINDOM         FLURRIES   7   3  85 MISG      30.49S
WORTHINGTON    FLURRIES   8   4  83 N6        30.47F WCI  -2
$$

IAZ001>003-012>014-020>022-031-032-NEZ013-014-SDZ071-100700-
NORTHWEST IOWA

CITY           SKY/WX    TMP DP  RH WIND       PRES   REMARKS
CHEROKEE       CLOUDY    17  13  84 CALM      30.49S
DENISON        CLOUDY    19  14  79 CALM      30.47S
ESTHERVILLE    CLOUDY    11   8  88 N8        30.49R FOG     WCI  -1
LE MARS        FLURRIES  16  12  86 CALM      30.50F
ORANGE CITY    LGT SNOW  16  14  93 CALM      30.47F
SHELDON        CLOUDY    14  12  92 N3        30.46F
SIOUX CITY     FLURRIES  20  11  68 CALM      30.50F
6HR MIN TEMP:  19; 6HR MAX TEMP:  20; 6HR PCP: TRACE;

SPENCER        CLOUDY    15  12  88 W7        30.48F WCI   5
6HR MIN TEMP:  15; 6HR MAX TEMP:  17; 6HR PCP: TRACE;

STORM LAKE     CLOUDY    16  10  79 CALM      30.47F
$$

ABBREVIATIONS USED IN REMARKS
   TC - TEMPERATURE IN CELSIUS
  WCI - WIND CHILL INDEX
   HX - HEAT INDEX
  VSB - VISIBILITY




USA.gov is the U.S. government's official web portal to all federal, state and local government web resources and services.